This demonstration page uses our WeatherBlox Daily Observations layout. Learn more.

Left ArrowRight Arrow

36.19886, -115.1175

Hourly Observations for November 13, 2015

Temp ( °F °C ) Dew Point ( °F °C ) Humidity (%) Winds ( mph kmh ) Pressure ( in mb ) Visibility ( mi km ) Precip ( " mm )
12:53 am 00:53 Clear 51 10.6 19 -7.2 28 28 NNW 6 9 30.19 1022 10 16 0.00 0.00
1:53 am 01:53 Clear 51 10.6 19 -7.2 28 28 N 10 17 30.17 1022 10 16 0.00 0.00
2:53 am 02:53 Clear 52 11.1 19 -7.2 27 27 VRB 6 9 30.17 1022 10 16 0.00 0.00
3:53 am 03:53 Clear 50 10 20 -6.7 30 30 N 9 15 30.17 1022 10 16 0.00 0.00
4:53 am 04:53 Clear 48 8.9 20 -6.7 33 33 NNW 8 13 30.19 1022 10 16 0.00 0.00
5:53 am 05:53 Clear 47 8.3 20 -6.7 34 34 N 5 7 30.20 1023 10 16 0.00 0.00
6:53 am 06:53 Sunny 48 8.9 20 -6.7 33 33 NNW 9 15 30.22 1023 10 16 0.00 0.00
7:53 am 07:53 Sunny 52 11.1 20 -6.7 28 28 N 7 11 30.23 1024 10 16 0.00 0.00
8:53 am 08:53 Sunny 57 13.9 19 -7.2 23 23 NNE 7 11 30.23 1024 10 16 0.00 0.00
9:53 am 09:53 Sunny 60 15.6 18 -7.8 19 19 N 8 13 30.22 1023 10 16 0.00 0.00
10:53 am 10:53 Sunny 61 16.1 19 -7.2 20 20 E 3 6 30.20 1023 10 16 0.00 0.00
11:53 am 11:53 Sunny 63 17.2 18 -7.8 17 17 SE 3 6 30.16 1021 10 16 0.00 0.00
12:53 pm 12:53 Sunny 65 18.3 17 -8.3 16 16 Calm 30.13 1020 10 16 0.00 0.00
3:53 pm 15:53 Sunny 67 19.4 17 -8.3 15 15 Calm 30.09 1019 10 16 0.00 0.00
4:53 pm 16:53 Clear 65 18.3 19 -7.2 17 17 Calm 30.09 1019 10 16 0.00 0.00
5:53 pm 17:53 Clear 58 14.4 22 -5.6 25 25 NW 7 11 30.10 1019 10 16 0.00 0.00
6:53 pm 18:53 Clear 56 13.3 25 -3.9 30 30 WNW 6 9 30.11 1020 10 16 0.00 0.00
7:53 pm 19:53 Clear 53 11.7 23 -5 31 31 NNW 8 13 30.11 1020 10 16 0.00 0.00
8:53 pm 20:53 Clear 52 11.1 22 -5.6 31 31 NW 7 11 30.11 1020 10 16 0.00 0.00
9:53 pm 21:53 Clear 51 10.6 20 -6.7 29 29 NW 6 9 30.11 1020 10 16 0.00 0.00
10:53 pm 22:53 Clear 48 8.9 21 -6.1 34 34 W 5 7 30.11 1020 10 16 0.00 0.00
11:53 pm 23:53 Clear 48 8.9 23 -5 37 37 NW 3 6 30.11 1020 10 16 0.00 0.00

Powered by AerisWeather